Showing default

FLOCK 4Q 1, 58270

Orbit data source: Space-Track

FLOCK 4Q 1, 58270 is a payload satellite owned by Planet (US) in SSO that was launched on Sat, 11 Nov 2023 UTC via an FALCON 9 launch vehicle from the Air Force Western Test Range (AFWTR). Payload-class satellites include a variety of spacecraft equipped with specific instruments for various scientific and technological missions. These include communications satellites like Starlink; space stations such as the ISS; scientific satellites like the Hubble; Earth observation satellites from companies like Planet Labs, Umbra, and HawkEye 360; GPS; miniature CubeSats for education and research; and military/defense satellites.

Loading next visibility...
Identifier
58270, 2023-174Q
Orbit
SSO
Country
Flag of USUS
Related business
Manufacturer
Planet
Mission
Operational Commercial Imaging
Bus & Motor
CUBESAT 3U, Unknown motor
Mass
5.7 kg wet, 5.7 kg dry
Launch date (UTC)
2023-11-11 (2 years ago)
Launch vehicle
FALCON 9
Launch site
Air Force Western Test Range (AFWTR)
Object type
Payload
Rocket body
Debris
Shape & HBR
Box + 2 Pan, 1.0 m
Radar Cross Section
0.072 m², Medium (>0.1 m² and < 1m²)

Expand to show TLE details & history
Last TLE update: 1 day ago

TLE from 1 day ago
0 FLOCK 4Q 1
1 58270U 23174Q   25288.20481564  .00054805  00000-0  13812-2 0  9993
2 58270  97.4087   8.4020 0007150 325.9611  34.1176 15.39676099107828
Epoch: 2025-10-15T04:54Z
TLE epoch observation values (Epoch: 2025-10-15T04:54:56.071Z)
Latitude
0.00006°
Longitude
-89.31388°
Altitude
446.143 km
Speed
7.647 km/s
True Right ascension
00h 33m 36s
True Declination
0° 00' 00"
Sunlit
Object was in full shadow at epoch
Visualization orbit readout
Latitude
Unknown
Longitude
Unknown
Altitude
Unknown
Speed
Unknown
Apparent Right ascension
Unknown
Apparent Declination
Unknown
Sunlit
N/A
Visualization observer readout
Local Sidereal Time
01:34:39
Azimuth
Unknown
Elevation
Unknown
Doppler factor
Unknown
Orbital elements
Apogee altitude
448.884 km
Perigee altitude
439.128 km
Semi-major axis
6,822.143 km
Eccentricity
0.00072
Inclination
97.4087°
RAAN
8.402°
Arg. of periapsis
325.9611°
True anomaly
34.16359°
Mean anomaly
34.1176°
Eccentric anomaly
34.14059°
Mean motion
3.85178 °/min
Orbital period
93.46 mins
BSTAR
0.0013812
Loading maneuver chart data...
Computing Atmospheric mass density...
Loading historical data...
Loading historical data...
Loading historical data...
Loading historical data...
Loading historical data...
Loading historical data...
Loading historical data...

Documentation

Showing up to 5 results
|